Weather History for Dublin, VA

Change the Weather History Date:

Sunday, October 7, 2012

  Actual Average (KBCB) Record (KBCB)
Temperature  
Mean Temperature 44 °F 55 °F  
Max Temperature 50 °F 68 °F 87 °F (2007)
Min Temperature 39 °F 42 °F 25 °F (1988)
Degree Days  
Heating Degree Days 20 10  
Month to date heating degree days 65  
Since 1 July heating degree days 196  
Cooling Degree Days 0 0  
Month to date cooling degree days 1  
Year to date cooling degree days 570  
Moisture  
Dew Point 44 °F    
Average Humidity 93    
Maximum Humidity 100    
Minimum Humidity 66    
Precipitation  
Precipitation 0.12 in 0.09 in 1.88 in (2013)
Month to date precipitation 0.62  
Year to date precipitation 32.91  
Snow  
Snow 0.00 in - - ()
Month to date snowfall  
Since 1 July snowfall  
Since 1 September snowfall  
Snow Depth -    
Sea Level Pressure  
Sea Level Pressure 30.11 in    
Wind  
Wind Speed 3 mph (NNW)    
Max Wind Speed 9 mph    
Max Gust Speed -    
Visibility 8 miles    
Events Rain    
T = Trace of Precipitation, MM = Missing Value Source: NWS Daily Summary

Daily Weather History Graph

Daily Weather History Graph

Search for Another Location

Airport:

Trip Planner

Search our weather history database for the weather conditions in past years. The results will help you decide how hot, cold, wet, or windy it might be!

Date:

Astronomy

Oct. 07, 2012 Rise Set
Actual Time 7:23 AM EDT 6:56 PM EDT
Civil Twilight 6:57 AM EDT 7:22 PM EDT
Nautical Twilight 6:27 AM EDT 7:52 PM EDT
Astronomical Twilight 5:57 AM EDT 8:22 PM EDT
Moon No Moon Rise 1:54 PM EDT (10/7)
Length of Visible Light 12h 24m
Length of Day
11h 32m
Waning Gibbous, 56% of the Moon is Illuminated
Oct 7
Waning Gibbous
Oct 8
Last Quarter
Oct 15
New
Oct 21
First Quarter
Oct 29
Full

Hourly Weather History & Observations

Time (EDT) Temp. Windchill Dew Point Humidity Pressure Visibility Wind Dir Wind Speed Gust Speed Precip Events Conditions
12:15 AM 48.2 °F - 44.6 °F 87% 30.09 in 10.0 mi NW 6.9 mph - N/A   Mostly Cloudy
12:35 AM 50.0 °F - 42.8 °F 76% 30.08 in 10.0 mi NW 3.5 mph - N/A   Overcast
12:55 AM 50.0 °F - 42.8 °F 76% 30.08 in 10.0 mi Calm Calm - N/A   Overcast
1:15 AM 50.0 °F - 42.8 °F 76% 30.08 in 10.0 mi NW 5.8 mph - N/A   Overcast
1:35 AM 50.0 °F - 42.8 °F 76% 30.07 in 10.0 mi NNW 3.5 mph - N/A   Overcast
1:55 AM 50.0 °F - 41.0 °F 71% 30.07 in 10.0 mi Calm Calm - N/A   Overcast
2:15 AM 50.0 °F - 41.0 °F 71% 30.08 in 10.0 mi NW 3.5 mph - N/A   Overcast
2:35 AM 50.0 °F - 39.2 °F 66% 30.07 in 10.0 mi Calm Calm - N/A   Overcast
2:55 AM 50.0 °F - 39.2 °F 66% 30.07 in 10.0 mi Calm Calm - N/A   Overcast
3:15 AM 50.0 °F - 39.2 °F 66% 30.08 in 10.0 mi Calm Calm - N/A   Overcast
3:35 AM 50.0 °F - 42.8 °F 76% 30.07 in 10.0 mi NW 3.5 mph - N/A   Overcast
3:55 AM 48.2 °F - 42.8 °F 82% 30.07 in 10.0 mi Calm Calm - N/A   Drizzle
4:15 AM 48.2 °F - 42.8 °F 82% 30.06 in 10.0 mi Calm Calm - N/A Rain Light Rain
4:35 AM 48.2 °F - 42.8 °F 82% 30.07 in 10.0 mi Calm Calm - N/A Rain Rain
4:55 AM 48.2 °F - 44.6 °F 87% 30.07 in 10.0 mi East 3.5 mph - 0.01 in Rain Light Rain
5:15 AM 48.2 °F - 44.6 °F 87% 30.08 in 5.0 mi Calm Calm - 0.02 in Rain Rain
5:35 AM 46.4 °F - 44.6 °F 93% 30.07 in 10.0 mi Calm Calm - 0.01 in Rain Rain
5:55 AM 46.4 °F 44.3 °F 44.6 °F 93% 30.10 in 7.0 mi NW 4.6 mph - 0.02 in Rain Rain
6:15 AM 46.4 °F - 44.6 °F 93% 30.09 in 10.0 mi Calm Calm - 0.02 in Rain Rain
6:35 AM 46.4 °F - 44.6 °F 93% 30.08 in 10.0 mi Calm Calm - 0.01 in Rain Light Rain
6:55 AM 44.6 °F 43.1 °F 44.6 °F 100% 30.08 in 3.0 mi East 3.5 mph - 0.04 in Rain Rain
7:15 AM 44.6 °F 43.1 °F 44.6 °F 100% 30.06 in 7.0 mi East 3.5 mph - 0.01 in Rain Rain
7:35 AM 44.6 °F - 44.6 °F 100% 30.07 in 10.0 mi Calm Calm - N/A Rain Light Rain
7:55 AM 44.6 °F 41.4 °F 44.6 °F 100% 30.10 in 10.0 mi NW 5.8 mph - N/A   Overcast
8:15 AM 44.6 °F - 44.6 °F 100% 30.10 in 10.0 mi Calm Calm - N/A   Overcast
8:35 AM 44.6 °F - 44.6 °F 100% 30.10 in 10.0 mi Calm Calm - N/A   Overcast
8:55 AM 46.4 °F - 46.4 °F 100% 30.11 in 10.0 mi Calm Calm - N/A   Overcast
9:15 AM 46.4 °F - 46.4 °F 100% 30.11 in 10.0 mi Calm Calm - N/A   Overcast
9:55 AM 46.4 °F 45.2 °F 46.4 °F 100% 30.11 in 10.0 mi East 3.5 mph - N/A   Overcast
10:15 AM 46.4 °F 45.2 °F 46.4 °F 100% 30.12 in 7.0 mi East 3.5 mph - N/A   Overcast
10:35 AM 46.4 °F 45.2 °F 46.4 °F 100% 30.12 in 3.0 mi East 3.5 mph - N/A   Drizzle
10:55 AM 46.4 °F - 46.4 °F 100% 30.12 in 2.5 mi Calm Calm - N/A Rain Light Rain
11:15 AM 46.4 °F - 46.4 °F 100% 30.12 in 3.0 mi Calm Calm - 0.01 in   Drizzle
11:35 AM 46.4 °F 44.3 °F 46.4 °F 100% 30.11 in 1.5 mi ESE 4.6 mph - N/A Rain Light Rain
11:55 AM 46.4 °F - 46.4 °F 100% 30.12 in 2.0 mi Calm Calm - 0.01 in   Overcast
12:15 PM 46.4 °F 45.2 °F 46.4 °F 100% 30.10 in 1.5 mi ESE 3.5 mph - N/A   Drizzle
12:35 PM 46.4 °F 45.2 °F 46.4 °F 100% 30.10 in 4.0 mi ESE 3.5 mph - N/A   Overcast
12:55 PM 46.4 °F 44.3 °F 46.4 °F 100% 30.09 in 7.0 mi ESE 4.6 mph - N/A   Overcast
1:15 PM 48.2 °F - 48.2 °F 100% 30.09 in 10.0 mi ESE 3.5 mph - 0.01 in   Overcast
1:35 PM 48.2 °F - 48.2 °F 100% 30.08 in 7.0 mi East 4.6 mph - N/A Rain Light Rain
1:55 PM 46.4 °F - 46.4 °F 100% 30.08 in 7.0 mi Calm Calm - N/A Rain Light Rain
2:15 PM 48.2 °F - 48.2 °F 100% 30.08 in 7.0 mi Calm Calm - 0.01 in Rain Rain
2:35 PM 48.2 °F - 48.2 °F 100% 30.09 in 10.0 mi Calm Calm - N/A   Overcast
2:55 PM 48.2 °F - 48.2 °F 100% 30.10 in 5.0 mi NW 3.5 mph - N/A   Drizzle
3:15 PM 48.2 °F - 48.2 °F 100% 30.10 in 7.0 mi Calm Calm - N/A   Light Drizzle
3:35 PM 48.2 °F - 48.2 °F 100% 30.10 in 7.0 mi West 3.5 mph - N/A   Light Drizzle
3:55 PM 48.2 °F - 48.2 °F 100% 30.11 in 7.0 mi West 4.6 mph - N/A Rain Light Rain
4:15 PM 48.2 °F - 48.2 °F 100% 30.11 in 7.0 mi NW 6.9 mph - 0.01 in Rain Rain
4:35 PM 48.2 °F - 46.4 °F 93% 30.12 in 7.0 mi NW 9.2 mph - 0.01 in Rain Rain
4:55 PM 48.2 °F - 46.4 °F 93% 30.13 in 7.0 mi WNW 9.2 mph - N/A Rain Light Rain
5:15 PM 48.2 °F - 46.4 °F 93% 30.12 in 10.0 mi WNW 8.1 mph - N/A   Overcast
5:35 PM 46.4 °F 42.9 °F 44.6 °F 93% 30.13 in 10.0 mi West 6.9 mph - N/A   Overcast
5:55 PM 46.4 °F - 42.8 °F 87% 30.13 in 10.0 mi Calm Calm - N/A   Overcast
6:15 PM 46.4 °F - 44.6 °F 93% 30.13 in 10.0 mi Calm Calm - N/A   Scattered Clouds
6:35 PM 46.4 °F - 44.6 °F 93% 30.13 in 10.0 mi Calm Calm - N/A   Clear
6:55 PM 46.4 °F - 42.8 °F 87% 30.13 in 10.0 mi Calm Calm - N/A   Clear
7:15 PM 44.6 °F - 42.8 °F 93% 30.14 in 10.0 mi Calm Calm - N/A   Clear
7:35 PM 44.6 °F - 42.8 °F 93% 30.14 in 10.0 mi Calm Calm - N/A   Clear
7:55 PM 42.8 °F - 42.8 °F 100% 30.15 in 10.0 mi Calm Calm - N/A   Clear
8:15 PM 42.8 °F - 42.8 °F 100% 30.16 in 10.0 mi Calm Calm - N/A   Clear
8:55 PM 42.8 °F - 39.2 °F 87% 30.17 in 10.0 mi Calm Calm - N/A   Clear
9:15 PM 39.2 °F - 39.2 °F 100% 30.17 in 10.0 mi Calm Calm - N/A   Clear
9:35 PM 39.2 °F - 39.2 °F 100% 30.18 in 10.0 mi Calm Calm - N/A   Clear
9:55 PM 39.2 °F - 39.2 °F 100% 30.19 in 10.0 mi Calm Calm - N/A   Clear
10:15 PM 41.0 °F - 41.0 °F 100% 30.19 in 10.0 mi Calm Calm - N/A   Scattered Clouds
10:35 PM 39.2 °F 37.0 °F 39.2 °F 100% 30.19 in 10.0 mi SSW 3.5 mph - N/A   Clear
10:55 PM 39.2 °F 37.0 °F 39.2 °F 100% 30.19 in 10.0 mi WNW 3.5 mph - N/A   Scattered Clouds
11:15 PM 39.2 °F - 39.2 °F 100% 30.20 in 10.0 mi Calm Calm - N/A   Mostly Cloudy
11:35 PM 41.0 °F - 41.0 °F 100% 30.20 in 10.0 mi Calm Calm - N/A   Mostly Cloudy
11:55 PM 41.0 °F - 41.0 °F 100% 30.19 in 10.0 mi Calm Calm - N/A   Mostly Cloudy